Location: Czekan�w
(50.3488°N, 18.7344°E)
Time: 23:22:26
(UTC+00:00)

Cosmos 1356 Rocket - Pass Details

Date: 17 February 2020
Orbit: 543 x 598 km, 81.2° (Epoch: 09 April)

Event Time Altitude Azimuth Distance (km) Brightness Sun altitude
Exits shadow 03:58:21 45° 240° (WSW) 760 3.6 -19.0°
Maximum altitude 03:59:11 56° 285° (WNW) 670 3.3 -18.9°
Drops below altitude 10° 04:03:14 10° 5° (N) 1,868 6.1 -18.2°
Sets 04:05:29 0° 10° (N) 2,779 7.1 -17.9°
